TimeEST,TemperatureF,Dew PointF,Humidity,Sea Level PressureIn,VisibilityMPH,Wind Direction,Wind SpeedMPH,Gust SpeedMPH,PrecipitationIn,Events,Conditions,WindDirDegrees,DateUTC
12:53 AM,32.0,27.0,82,30.15,10.0,Calm,Calm,-,N/A,,Clear,0,2012-11-21 05:53:00
1:53 AM,30.9,28.0,89,30.16,10.0,Calm,Calm,-,N/A,,Clear,0,2012-11-21 06:53:00
2:53 AM,30.9,27.0,85,30.17,10.0,Calm,Calm,-,N/A,,Clear,0,2012-11-21 07:53:00
3:53 AM,30.9,28.0,89,30.18,10.0,Calm,Calm,-,N/A,,Clear,0,2012-11-21 08:53:00
4:53 AM,30.0,27.0,88,30.19,9.0,Calm,Calm,-,N/A,,Clear,0,2012-11-21 09:53:00
5:53 AM,28.0,25.0,88,30.20,8.0,Calm,Calm,-,N/A,,Clear,0,2012-11-21 10:53:00
6:53 AM,27.0,25.0,92,30.22,7.0,Calm,Calm,-,N/A,,Clear,0,2012-11-21 11:53:00
7:53 AM,30.9,28.0,89,30.23,7.0,Calm,Calm,-,N/A,,Clear,0,2012-11-21 12:53:00
8:53 AM,37.9,30.0,73,30.24,9.0,Calm,Calm,-,N/A,,Clear,0,2012-11-21 13:53:00
9:53 AM,44.1,28.9,55,30.24,10.0,NNE,8.1,-,N/A,,Clear,30,2012-11-21 14:53:00
10:53 AM,46.9,30.0,52,30.23,10.0,East,5.8,-,N/A,,Clear,80,2012-11-21 15:53:00
11:53 AM,48.9,28.0,44,30.21,10.0,East,6.9,-,N/A,,Clear,90,2012-11-21 16:53:00
12:53 PM,51.1,26.1,38,30.19,10.0,NNE,5.8,-,N/A,,Clear,30,2012-11-21 17:53:00
1:53 PM,52.0,26.1,37,30.19,10.0,Variable,4.6,-,N/A,,Clear,0,2012-11-21 18:53:00
2:53 PM,52.0,21.9,31,30.19,10.0,NE,5.8,-,N/A,,Clear,40,2012-11-21 19:53:00
3:53 PM,50.0,24.1,36,30.19,10.0,NNE,3.5,-,N/A,,Clear,30,2012-11-21 20:53:00
4:53 PM,43.0,25.0,49,30.20,10.0,Calm,Calm,-,N/A,,Clear,0,2012-11-21 21:53:00
5:53 PM,37.9,26.1,62,30.23,10.0,Calm,Calm,-,N/A,,Clear,0,2012-11-21 22:53:00
6:53 PM,34.0,26.1,73,30.24,10.0,Calm,Calm,-,N/A,,Clear,0,2012-11-21 23:53:00
7:53 PM,30.9,24.1,76,30.26,10.0,Calm,Calm,-,N/A,,Clear,0,2012-11-22 00:53:00
8:53 PM,28.9,25.0,85,30.25,10.0,Calm,Calm,-,N/A,,Clear,0,2012-11-22 01:53:00
9:53 PM,28.0,24.1,85,30.25,10.0,Calm,Calm,-,N/A,,Clear,0,2012-11-22 02:53:00
10:53 PM,26.1,23.0,88,30.25,10.0,Calm,Calm,-,N/A,,Clear,0,2012-11-22 03:53:00
11:53 PM,26.1,23.0,88,30.25,10.0,Calm,Calm,-,N/A,,Clear,0,2012-11-22 04:53:00